Snowfall_Accumulation
0.0 0.0 0.0 0.0 0.0 0.0 0.0 0.0 0.0 0.0 0.0 0.0 0.0 0.0 0.0 0.0 0.0 0.0 0.0 0.0 0.0 0.0 0.0 0.0 0.0 0.0 0.0 0.0 0.0 0.0 0.0 0.0 0.0 1.0 0.8 0.4 0.0 0.0 0.0 0.0 0.0 0.0 0.0
0.0 0.0 0.0 0.0 0.0 0.0 0.0 0.0 0.0 0.0 0.0 0.0 0.0 0.0 0.0 0.0 0.0 0.0 0.0 0.0 0.0 0.0 0.0 0.0 0.0 0.0 0.0 0.0 0.0 0.3 0.0 0.1 0.9 0.8 0.1 0.1 0.0 0.0 0.0 0.0 0.0 0.0 0.1
0.0 0.0 0.0 0.0 0.0 0.0 0.0 0.0 0.0 0.0 0.0 0.0 0.0 0.0 0.0 0.0 0.0 0.0 0.0 0.0 0.0 0.0 0.0 0.0 0.0 0.0 0.0 0.0 0.8 0.3 0.1 0.9 0.4 0.5 0.2 0.0 0.0 0.0 0.0 0.0 0.0 0.0 0.0
0.0 0.0 0.0 0.0 0.0 0.0 0.0 0.0 0.0 0.0 0.0 0.0 0.0 0.0 0.0 0.0 0.0 0.0 0.0 0.0 0.0 0.0 0.0 0.0 0.0 0.0 0.1 0.5 0.9 0.5 0.2 0.1 0.0 0.3 0.0 0.7 0.4 0.0 0.4 0.2 0.0 0.0 0.0
0.0 0.0 0.0 0.0 0.0 0.0 0.0 0.0 0.0 0.0 0.0 0.0 0.0 0.0 0.0 0.0 0.0 0.0 0.0 0.0 0.2 0.0 0.7 1.8 1.3 0.6 0.3 0.1 0.2 0.4 0.0 0.0 0.7 2.4 2.3 1.4 0.8 0.3 0.1 0.0 0.0 0.0 0.0
0.0 0.0 0.0 0.0 0.0 0.0 0.0 0.0 0.0 0.0 0.0 0.0 0.0 0.0 0.0 0.0 0.0 0.0 0.0 0.0 0.9 0.5 1.3 1.1 0.6 0.8 0.4 0.0 0.0 0.0 0.0 0.8 2.7 4.0 3.4 1.5 0.0 0.0 0.0 0.0 0.9 2.0 2.2
0.0 0.0 0.0 0.0 0.0 0.0 0.0 0.0 0.0 0.0 0.0 0.0 0.0 0.0 0.0 0.0 0.0 0.0 0.4 2.3 2.4 2.1 2.1 1.9 1.1 0.4 0.3 0.2 0.0 0.0 0.1 0.4 0.4 0.4 0.3 0.1 0.2 0.0 1.8 3.5 2.2 2.7 1.6
0.0 0.0 0.0 0.0 0.0 0.0 0.0 1.2 2.0 0.6 1.9 2.4 4.8 4.4 5.4 2.5 0.5 0.6 1.5 1.7 0.9 0.7 0.5 0.5 0.0 0.0 0.0 0.1 0.2 1.5 0.9 0.2 0.0 0.0 0.0 0.1 0.5 0.3 0.4 0.8 0.7 0.9 0.4
0.0 0.0 0.0 0.0 0.0 0.0 2.3 2.9 1.9 2.0 4.7 4.4 3.8 2.7 1.3 1.1 0.3 0.1 0.3 0.3 0.5 0.0 0.1 0.0 0.1 0.1 0.0 0.0 1.0 1.5 0.2 0.0 0.0 0.0 0.1 0.1 0.0 0.0 0.0 1.6 3.1 3.3 2.2
0.0 0.5 0.1 0.0 0.0 1.3 1.8 1.9 5.2 4.2 4.0 2.2 2.4 0.9 0.2 0.5 0.0 0.0 0.0 0.0 0.0 0.0 0.0 0.0 0.0 0.0 0.0 0.3 0.5 0.1 0.6 0.0 0.9 0.7 0.0 0.0 0.0 0.0 0.0 0.1 3.4 11.8 5.6
0.0 1.5 1.5 1.2 1.5 2.5 4.6 4.2 3.6 2.7 2.1 1.7 1.0 0.4 0.1 0.1 0.0 0.0 0.0 0.0 0.0 0.5 0.3 0.0 0.0 0.1 0.5 0.1 0.0 0.0 0.1 0.1 0.1 0.1 0.0 0.0 0.0 0.0 0.1 0.2 1.3 10.1 15.6
1.8 3.1 3.5 2.7 1.9 1.9 1.7 1.0 0.5 0.0 0.0 0.1 0.0 0.0 0.0 0.0 0.0 0.0 0.0 0.0 0.0 0.3 0.2 0.0 0.2 0.7 0.0 0.0 0.0 0.1 0.1 0.2 0.0 0.1 0.2 0.2 0.2 0.3 0.2 0.2 0.7 1.8 3.5
0.7 0.5 0.8 0.1 0.0 0.0 0.0 0.0 0.0 0.0 0.0 0.0 0.0 0.0 0.0 0.0 0.0 0.0 0.0 0.1 0.1 0.2 0.1 0.4 0.4 0.0 0.0 0.0 0.0 0.0 0.0 0.0 0.5 1.9 1.3 0.5 0.3 0.6 1.1 3.6 3.9 4.2 4.9
0.0 0.0 0.0 0.0 0.0 0.0 0.0 0.0 0.0 0.0 0.0 0.0 0.0 0.0 0.0 0.0 0.0 0.0 0.1 0.1 0.0 0.1 0.9 0.8 0.0 0.0 0.0 0.0 0.0 0.0 0.0 0.1 1.6 3.7 3.7 1.9 2.2 4.1 4.6 5.5 8.9 7.4 10.5
0.0 0.0 0.0 0.0 0.0 0.0 0.0 0.0 0.0 0.0 0.0 0.0 0.0 0.1 0.0 0.0 0.0 0.1 0.1 0.1 0.4 0.8 0.3 0.0 0.0 0.0 0.0 0.0 0.0 0.0 0.0 0.0 1.4 1.8 3.7 4.0 3.6 5.5 5.9 7.5 10.9 12.6 13.8
0.0 0.0 0.0 0.0 0.0 0.0 0.0 0.0 0.0 0.0 0.0 0.0 0.0 0.0 0.0 0.0 0.0 0.1 0.0 0.3 0.4 0.0 0.0 0.0 0.0 0.2 0.1 0.2 0.1 1.0 1.5 1.3 2.3 5.0 5.4 5.3 7.3 8.6 9.9 11.2 12.7 13.8 13.4
0.0 0.0 0.0 0.0 0.0 0.0 0.0 0.1 0.1 0.0 0.0 0.0 0.0 0.0 0.0 0.1 0.0 0.0 0.3 0.5 0.0 0.0 0.0 0.4 1.2 1.3 1.1 1.8 0.5 3.0 4.5 3.2 5.4 8.3 8.6 8.8 10.2 11.0 10.9 13.0 11.6 11.2 9.3
0.0 0.0 0.0 0.0 0.0 0.0 0.0 0.0 0.1 0.1 0.0 0.0 0.0 0.0 0.0 0.0 0.0 0.2 0.3 0.0 0.0 0.0 0.2 1.7 2.5 2.8 3.2 4.3 4.9 6.2 6.1 5.2 7.1 7.6 9.9 10.5 11.4 14.6 14.3 13.7 11.4 10.9 9.4
0.0 0.0 0.0 0.0 0.0 0.0 0.0 0.0 0.1 0.1 0.0 0.0 0.0 0.0 0.0 0.0 0.1 0.4 0.0 0.0 0.1 1.4 1.6 1.5 2.0 2.4 3.3 3.9 4.3 5.2 6.2 9.5 11.9 14.0 11.5 11.9 12.1 16.8 14.2 10.0 9.0 4.7 3.4
0.0 0.0 0.0 0.0 0.0 0.1 0.1 0.2 0.1 0.2 0.2 0.1 0.1 0.0 0.2 0.2 1.5 0.0 0.0 0.0 0.2 0.6 0.3 1.1 1.0 1.0 3.0 4.0 5.6 5.9 7.8 7.9 9.7 10.1 10.7 11.4 12.9 14.1 13.4 9.1 5.5 5.9 3.2
0.0 0.0 0.0 0.0 0.1 0.3 0.4 0.5 0.4 0.6 0.7 0.5 0.3 0.7 0.5 1.2 0.4 0.5 0.4 0.8 0.9 0.9 1.0 1.2 1.3 2.0 2.8 3.9 5.4 7.2 9.5 9.8 10.5 13.6 12.8 12.0 12.6 11.6 5.3 4.6 4.4 4.2 4.8
0.0 0.0 0.0 0.0 0.3 0.4 0.3 0.6 0.7 0.8 0.5 0.6 0.6 1.0 0.8 0.7 0.7 1.0 1.3 0.8 1.2 1.5 1.4 1.8 2.4 3.0 5.9 9.9 12.2 12.5 10.3 10.5 11.6 14.1 12.7 10.3 8.7 5.7 5.1 4.6 4.1 4.4 4.3
0.0 0.0 0.0 0.1 0.2 0.5 1.0 0.7 0.6 0.7 0.7 0.6 0.6 0.5 0.7 0.8 0.7 0.7 0.8 0.7 0.9 0.9 1.4 1.7 2.8 3.1 2.3 6.2 11.2 17.8 19.5 14.7 14.5 14.8 13.8 11.0 8.5 7.6 7.9 7.4 5.4 5.3 4.1
0.0 0.0 0.0 0.1 0.0 0.1 0.4 0.2 0.6 1.1 1.2 1.0 0.7 0.3 0.2 0.3 0.3 0.2 0.3 0.4 0.6 0.5 0.3 0.9 2.8 4.4 4.8 6.5 9.7 12.4 16.1 16.8 16.8 15.5 15.9 14.6 8.9 5.8 6.0 6.3 4.5 4.3 4.2
0.0 0.0 0.0 0.0 0.0 0.1 0.1 0.4 0.6 0.5 0.8 0.8 1.0 1.0 0.7 0.7 0.6 0.2 0.2 0.2 0.4 0.4 0.2 0.3 2.0 4.3 5.7 8.3 10.0 10.6 11.3 8.1 9.6 8.4 6.8 6.5 6.8 5.4 5.7 5.7 3.6 3.3 3.2
0.2 0.1 0.1 0.4 0.4 0.5 0.7 0.8 0.8 0.7 1.1 1.0 1.2 1.3 1.2 1.1 0.9 0.6 0.6 0.6 0.6 0.2 0.1 0.3 1.5 3.6 5.0 7.2 8.2 9.2 6.4 5.6 4.4 2.4 3.0 4.6 4.7 3.9 3.9 4.7 3.1 3.3 2.6